Starlink 1730

operational
NORAD ID: 46563 Int'l Des: 2020-070 Owner: SPXS Country: US Constellation: starlink
LEOCIRCULAR

About Starlink 1730

Description loading...

Live Position

Loading 3D Globe...

Upcoming Passes

Altitude History

Altitude vs Time

uPlot chart will show altitude changes over time

Two-Line Element Set

1 46563U 20070AH 26036.81182175 .00098792 00000-0 25378-2 0 9995
2 46563 53.0322 273.4073 0004884 134.5982 225.5420 15.38506009295354
Epoch: Feb 5, 2026 • Age: 5 hours

Current Status

Altitude 449.3 km
Velocity 7.65 km/s
Sub-Earth Point -2.23°S, 56.45°W
Launch Date Oct 6, 2020
Age 5.3 years
Type internet

Technical Details

Classification Payload
Mass 260.00 kg
Dry Mass 248.00 kg
Total Mass 260.00 kg
Length 0.20 m
Diameter 2.80 m
Span 9.00 m
Shape Box + pan
Manufacturer SPXS
Bus Type Starlink
Phase Status In Orbit
Owner/State SPXS/US

Large Constellations

Loading constellations...